AXY75 LGAV-HKJK

Flight info

Callsign AXY75
Flight time 5h 11m
Altitude 39000
Route KEA UL617 MIL UJ56 SUD/N0460F410 DCT SALUN L604 MEVDA P557 NUBAR P309 AVONO/N0472F400 A727 ANTAX/N0471F410 UA727 KAMAS KAMAS1A
Aircraft A343/H-SDE2E3FGHIJ4J5M1RWXY/LB1D1

Departure

Time 2026-05-07 16:11
Airport Athens Eleftherios Venizelos International Airport (LGAV)

Arrival

Time 2026-05-07 21:23
Airport Jomo Kenyatta International Airport (HKJK)
Time Latitude Longitude Altitude Speed Heading
2026-05-07 14:19 37.92878 23.94171 306 ft 0 kts 217°
2026-05-07 15:54 37.92879 23.94173 305 ft 2 kts 217°
2026-05-07 15:55 37.92899 23.94193 307 ft 4 kts 217°
2026-05-07 15:55 37.92916 23.94209 306 ft 4 kts 214°
2026-05-07 15:55 37.92940 23.94222 306 ft 4 kts 183°
2026-05-07 15:55 37.92964 23.94216 306 ft 4 kts 139°
2026-05-07 15:56 37.92970 23.94209 307 ft 4 kts 127°
2026-05-07 15:59 37.92965 23.94218 306 ft 5 kts 127°
2026-05-07 16:00 37.92941 23.94257 305 ft 3 kts 127°
2026-05-07 16:00 37.92937 23.94265 310 ft 0 kts 127°
2026-05-07 16:00 37.92933 23.94272 309 ft 1 kts 127°
2026-05-07 16:00 37.92931 23.94274 309 ft 1 kts 127°
2026-05-07 16:01 37.92929 23.94278 309 ft 0 kts 127°
2026-05-07 16:02 37.92925 23.94284 309 ft 2 kts 127°
2026-05-07 16:02 37.92902 23.94321 309 ft 10 kts 128°
2026-05-07 16:02 37.92883 23.94403 308 ft 9 kts 63°
2026-05-07 16:02 37.92939 23.94462 309 ft 12 kts 37°
2026-05-07 16:03 37.93011 23.94532 308 ft 14 kts 37°
2026-05-07 16:03 37.93102 23.94617 309 ft 19 kts 36°
2026-05-07 16:03 37.93210 23.94719 309 ft 20 kts 37°
2026-05-07 16:03 37.93311 23.94815 309 ft 13 kts 38°
2026-05-07 16:04 37.93389 23.94889 308 ft 15 kts 36°
2026-05-07 16:04 37.93477 23.94972 307 ft 17 kts 36°
2026-05-07 16:04 37.93577 23.95067 307 ft 19 kts 37°
2026-05-07 16:04 37.93684 23.95170 308 ft 19 kts 37°
2026-05-07 16:05 37.93792 23.95273 307 ft 20 kts 36°
2026-05-07 16:05 37.93906 23.95381 307 ft 20 kts 37°
2026-05-07 16:05 37.94021 23.95491 306 ft 21 kts 37°
2026-05-07 16:05 37.94141 23.95605 306 ft 22 kts 37°
2026-05-07 16:06 37.94266 23.95724 306 ft 21 kts 37°
2026-05-07 16:06 37.94360 23.95818 308 ft 12 kts 49°
2026-05-07 16:06 37.94353 23.95901 305 ft 11 kts 105°
2026-05-07 16:06 37.94388 23.95980 305 ft 12 kts 40°
2026-05-07 16:07 37.94467 23.96057 307 ft 17 kts 37°
2026-05-07 16:07 37.94577 23.96161 307 ft 21 kts 37°
2026-05-07 16:07 37.94691 23.96268 308 ft 20 kts 36°
2026-05-07 16:07 37.94796 23.96367 308 ft 18 kts 37°
2026-05-07 16:08 37.94902 23.96469 309 ft 20 kts 37°
2026-05-07 16:08 37.95015 23.96579 310 ft 21 kts 37°
2026-05-07 16:08 37.95135 23.96691 310 ft 22 kts 36°
2026-05-07 16:08 37.95251 23.96801 310 ft 17 kts 37°
2026-05-07 16:09 37.95294 23.96888 311 ft 9 kts 97°
2026-05-07 16:09 37.95267 23.96952 313 ft 7 kts 124°
2026-05-07 16:09 37.95243 23.96994 314 ft 5 kts 129°
2026-05-07 16:09 37.95215 23.97020 315 ft 6 kts 157°
2026-05-07 16:10 37.95174 23.97005 316 ft 8 kts 212°
2026-05-07 16:10 37.95103 23.96944 315 ft 23 kts 214°
2026-05-07 16:10 37.94798 23.96657 310 ft 88 kts 218°
2026-05-07 16:10 37.94153 23.96036 288 ft 143 kts 217°
2026-05-07 16:11 37.93260 23.95185 544 ft 169 kts 217°
2026-05-07 16:11 37.92247 23.94399 1201 ft 173 kts 205°
2026-05-07 16:11 37.91138 23.93810 1940 ft 177 kts 202°
2026-05-07 16:11 37.89988 23.93185 2713 ft 183 kts 205°
2026-05-07 16:12 37.88835 23.92456 3521 ft 187 kts 208°
2026-05-07 16:12 37.87640 23.91650 4101 ft 205 kts 208°
2026-05-07 16:12 37.86296 23.90745 4565 ft 234 kts 208°
2026-05-07 16:12 37.84782 23.89746 5199 ft 255 kts 206°
2026-05-07 16:13 37.83032 23.89092 6012 ft 269 kts 188°
2026-05-07 16:13 37.81156 23.89070 7081 ft 272 kts 175°
2026-05-07 16:13 37.79243 23.89397 7978 ft 282 kts 174°
2026-05-07 16:13 37.77272 23.89690 8892 ft 288 kts 176°
2026-05-07 16:14 37.75262 23.89943 9877 ft 292 kts 176°
2026-05-07 16:14 37.73228 23.90199 10750 ft 298 kts 176°
2026-05-07 16:14 37.71090 23.90463 11166 ft 319 kts 177°
2026-05-07 16:14 37.68842 23.90728 11545 ft 338 kts 177°
2026-05-07 16:15 37.66427 23.91018 11920 ft 358 kts 176°
2026-05-07 16:15 37.63874 23.91356 12510 ft 369 kts 176°
2026-05-07 16:15 37.61298 23.91707 13246 ft 375 kts 177°
2026-05-07 16:15 37.58712 23.92056 14001 ft 381 kts 177°
2026-05-07 16:16 37.56054 23.92408 14711 ft 387 kts 178°
2026-05-07 16:16 37.53361 23.92757 15429 ft 392 kts 178°
2026-05-07 16:16 37.50632 23.93104 16124 ft 397 kts 178°
2026-05-07 16:16 37.47859 23.93453 16824 ft 402 kts 178°
2026-05-07 16:17 37.45055 23.93804 17534 ft 407 kts 178°
2026-05-07 16:17 37.42214 23.94160 18253 ft 412 kts 178°
2026-05-07 16:17 37.39348 23.94520 18878 ft 417 kts 178°
2026-05-07 16:17 37.36442 23.94885 19487 ft 421 kts 178°
2026-05-07 16:18 37.33505 23.95254 20104 ft 425 kts 178°
2026-05-07 16:18 37.30546 23.95626 20720 ft 430 kts 178°
2026-05-07 16:18 37.27554 23.96002 21310 ft 434 kts 178°
2026-05-07 16:18 37.24571 23.96376 21863 ft 439 kts 178°
2026-05-07 16:19 37.21517 23.96759 22444 ft 443 kts 178°
2026-05-07 16:19 37.18433 23.97144 23005 ft 447 kts 178°
2026-05-07 16:19 37.15328 23.97532 23577 ft 451 kts 178°
2026-05-07 16:19 37.12190 23.97924 24047 ft 455 kts 178°
2026-05-07 16:20 37.09023 23.98319 24503 ft 459 kts 178°
2026-05-07 16:20 37.05836 23.98717 24925 ft 463 kts 179°
2026-05-07 16:20 37.02600 23.99118 25186 ft 471 kts 179°
2026-05-07 16:20 36.99323 23.99524 25586 ft 475 kts 179°
2026-05-07 16:21 36.96027 23.99934 26031 ft 478 kts 179°
2026-05-07 16:21 36.92700 24.00349 26474 ft 481 kts 179°
2026-05-07 16:21 36.89357 24.00765 26872 ft 485 kts 180°
2026-05-07 16:21 36.85979 24.01185 27287 ft 488 kts 180°
2026-05-07 16:22 36.82639 24.01599 27639 ft 491 kts 180°
2026-05-07 16:22 36.79199 24.02025 27753 ft 501 kts 180°
2026-05-07 16:22 36.75717 24.02452 28089 ft 505 kts 180°
2026-05-07 16:22 36.72210 24.02885 28488 ft 508 kts 181°
2026-05-07 16:23 36.68682 24.03321 28847 ft 511 kts 181°
2026-05-07 16:23 36.65125 24.03761 29201 ft 514 kts 181°
2026-05-07 16:23 36.61556 24.04202 29544 ft 517 kts 181°
2026-05-07 16:23 36.57960 24.04645 29796 ft 522 kts 181°
2026-05-07 16:24 36.54326 24.05092 30082 ft 526 kts 181°
2026-05-07 16:24 36.50674 24.05541 30369 ft 529 kts 181°
2026-05-07 16:24 36.47005 24.05992 30648 ft 531 kts 181°
2026-05-07 16:24 36.43318 24.06446 30961 ft 533 kts 181°
2026-05-07 16:25 36.39633 24.06901 31378 ft 532 kts 181°
2026-05-07 16:25 36.35954 24.07356 31770 ft 531 kts 181°
2026-05-07 16:25 36.32277 24.07808 32066 ft 532 kts 182°
2026-05-07 16:25 36.28589 24.08259 32398 ft 532 kts 182°
2026-05-07 16:26 36.24908 24.08709 32790 ft 532 kts 182°
2026-05-07 16:26 36.21223 24.09159 33149 ft 532 kts 182°
2026-05-07 16:26 36.17585 24.09603 33490 ft 532 kts 182°
2026-05-07 16:26 36.15099 24.09906 33735 ft 532 kts 182°
2026-05-07 16:27 36.10212 24.10500 34115 ft 533 kts 182°
2026-05-07 16:27 36.06519 24.10948 34379 ft 533 kts 182°
2026-05-07 16:27 36.02826 24.11396 34667 ft 534 kts 182°
2026-05-07 16:27 35.99127 24.11846 34938 ft 534 kts 182°
2026-05-07 16:28 35.95433 24.12294 35210 ft 534 kts 182°
2026-05-07 16:28 35.91736 24.12742 35474 ft 534 kts 182°
2026-05-07 16:28 35.88034 24.13190 35739 ft 535 kts 182°
2026-05-07 16:28 35.84371 24.13634 35992 ft 535 kts 182°
2026-05-07 16:29 35.80660 24.14082 36233 ft 535 kts 182°
2026-05-07 16:29 35.76952 24.14529 36482 ft 536 kts 182°
2026-05-07 16:29 35.73243 24.14976 36725 ft 536 kts 182°
2026-05-07 16:29 35.69516 24.15426 36970 ft 536 kts 182°
2026-05-07 16:30 35.65797 24.15873 37188 ft 537 kts 182°
2026-05-07 16:30 35.62083 24.16320 37465 ft 536 kts 182°
2026-05-07 16:30 35.58372 24.16766 37716 ft 536 kts 182°
2026-05-07 16:30 35.54658 24.17213 37964 ft 536 kts 182°
2026-05-07 16:31 35.50994 24.17658 38230 ft 536 kts 181°
2026-05-07 16:31 35.47237 24.18237 38478 ft 538 kts 179°
2026-05-07 16:31 35.43575 24.18916 38718 ft 539 kts 178°
2026-05-07 16:31 35.39870 24.19647 38966 ft 538 kts 177°
2026-05-07 16:32 35.36173 24.20380 39114 ft 540 kts 177°
2026-05-07 16:32 35.28767 24.21804 39135 ft 539 kts 178°
2026-05-07 16:33 35.21283 24.23183 39145 ft 549 kts 178°
2026-05-07 16:33 35.13719 24.24561 39138 ft 549 kts 178°
2026-05-07 16:34 35.06168 24.25935 39140 ft 548 kts 178°
2026-05-07 16:34 34.98672 24.27297 39138 ft 548 kts 178°
2026-05-07 16:35 34.91125 24.28666 39137 ft 548 kts 178°
2026-05-07 16:35 34.83587 24.30031 39135 ft 547 kts 178°
2026-05-07 16:36 34.76048 24.31393 39138 ft 547 kts 178°
2026-05-07 16:36 34.69784 24.32523 39124 ft 547 kts 177°
2026-05-07 16:37 34.62240 24.33882 39138 ft 548 kts 177°
2026-05-07 16:37 34.53474 24.35458 39138 ft 548 kts 177°
2026-05-07 16:38 34.47155 24.36592 39135 ft 548 kts 177°
2026-05-07 16:38 34.39618 24.37942 39134 ft 547 kts 177°
2026-05-07 16:39 34.32130 24.39280 39142 ft 548 kts 177°
2026-05-07 16:39 34.24557 24.40630 39138 ft 551 kts 177°
2026-05-07 16:40 34.16972 24.41982 39135 ft 550 kts 177°
2026-05-07 16:40 34.09410 24.43329 39139 ft 548 kts 177°
2026-05-07 16:41 34.01867 24.44853 39136 ft 553 kts 169°
2026-05-07 16:41 33.98218 24.46384 39139 ft 559 kts 158°
2026-05-07 16:41 33.94717 24.48425 39126 ft 560 kts 155°
2026-05-07 16:42 33.87907 24.52838 39135 ft 559 kts 153°
2026-05-07 16:42 33.81126 24.57399 39135 ft 558 kts 153°
2026-05-07 16:43 33.74334 24.61926 39138 ft 558 kts 153°
2026-05-07 16:43 33.67525 24.66413 39108 ft 558 kts 153°
2026-05-07 16:44 33.60727 24.70869 39142 ft 555 kts 154°
2026-05-07 16:44 33.53954 24.75300 39140 ft 554 kts 154°
2026-05-07 16:45 33.47193 24.79716 39138 ft 554 kts 154°
2026-05-07 16:45 33.40463 24.84106 39144 ft 554 kts 154°
2026-05-07 16:46 33.33688 24.88518 39141 ft 554 kts 154°
2026-05-07 16:46 33.26916 24.92920 39137 ft 554 kts 154°
2026-05-07 16:47 33.20146 24.97310 39136 ft 554 kts 154°
2026-05-07 16:47 33.13408 25.01674 39149 ft 554 kts 153°
2026-05-07 16:48 33.06638 25.06064 39145 ft 553 kts 153°
2026-05-07 16:48 32.99871 25.10432 39141 ft 552 kts 154°
2026-05-07 16:49 32.93103 25.14785 39144 ft 552 kts 154°
2026-05-07 16:49 32.86339 25.19132 39144 ft 552 kts 154°
2026-05-07 16:50 32.79573 25.23475 39136 ft 551 kts 154°
2026-05-07 16:50 32.72872 25.27771 39142 ft 551 kts 154°
2026-05-07 16:51 32.66122 25.32090 39141 ft 551 kts 154°
2026-05-07 16:51 32.59370 25.36400 39144 ft 552 kts 153°
2026-05-07 16:52 32.52603 25.40715 39138 ft 552 kts 154°
2026-05-07 16:52 32.45830 25.45028 39144 ft 552 kts 154°
2026-05-07 16:53 32.39062 25.49329 39144 ft 552 kts 154°
2026-05-07 16:53 32.32298 25.53619 39140 ft 552 kts 154°
2026-05-07 16:54 32.25528 25.57906 39130 ft 552 kts 154°
2026-05-07 16:54 32.18769 25.62179 39139 ft 551 kts 154°
2026-05-07 16:55 32.12049 25.66418 39144 ft 552 kts 154°
2026-05-07 16:55 32.05268 25.70689 39143 ft 553 kts 154°
2026-05-07 16:56 31.98474 25.74964 39140 ft 553 kts 154°
2026-05-07 16:56 31.88289 25.81358 39140 ft 552 kts 154°
2026-05-07 16:57 31.81515 25.85601 39143 ft 552 kts 154°
2026-05-07 16:57 31.74736 25.89839 39140 ft 552 kts 154°
2026-05-07 16:58 31.67961 25.94067 39132 ft 552 kts 154°
2026-05-07 16:58 31.61168 25.98298 39142 ft 554 kts 154°
2026-05-07 16:59 31.54587 26.02927 39143 ft 556 kts 147°
2026-05-07 16:59 31.48154 26.07978 39141 ft 557 kts 146°
2026-05-07 17:00 31.41755 26.13084 39143 ft 557 kts 146°
2026-05-07 17:00 31.35348 26.18185 39145 ft 558 kts 146°
2026-05-07 17:01 31.28916 26.23283 39139 ft 558 kts 146°
2026-05-07 17:01 31.22483 26.28365 39143 ft 558 kts 146°
2026-05-07 17:02 31.16039 26.33446 39138 ft 559 kts 146°
2026-05-07 17:02 31.09588 26.38526 39118 ft 559 kts 146°
2026-05-07 17:03 31.03183 26.43561 39133 ft 558 kts 146°
2026-05-07 17:03 30.96712 26.48640 39131 ft 557 kts 146°
2026-05-07 17:04 30.90319 26.53649 39129 ft 557 kts 146°
2026-05-07 17:04 30.83884 26.58683 39136 ft 558 kts 146°
2026-05-07 17:05 30.77430 26.63723 39112 ft 558 kts 146°
2026-05-07 17:05 30.70978 26.68754 39124 ft 559 kts 146°
2026-05-07 17:06 30.64515 26.73785 39128 ft 559 kts 146°
2026-05-07 17:06 30.58056 26.78805 39127 ft 559 kts 146°
2026-05-07 17:07 30.51592 26.83820 39122 ft 559 kts 146°
2026-05-07 17:07 30.45130 26.88825 39127 ft 559 kts 146°
2026-05-07 17:08 30.38697 26.93801 39122 ft 560 kts 146°
2026-05-07 17:08 30.32210 26.98809 39121 ft 560 kts 146°
2026-05-07 17:09 30.25717 27.03814 39114 ft 560 kts 146°
2026-05-07 17:09 30.19235 27.08804 39114 ft 560 kts 146°
2026-05-07 17:10 30.12748 27.13788 39106 ft 559 kts 146°
2026-05-07 17:10 30.06273 27.18755 39114 ft 559 kts 146°
2026-05-07 17:11 29.99789 27.23722 39103 ft 559 kts 146°
2026-05-07 17:11 29.93304 27.28681 39094 ft 559 kts 146°
2026-05-07 17:12 29.86808 27.33641 39084 ft 559 kts 145°
2026-05-07 17:12 29.80325 27.38582 39091 ft 558 kts 145°
2026-05-07 17:13 29.73893 27.43477 39091 ft 558 kts 146°
2026-05-07 17:13 29.67419 27.48397 39094 ft 558 kts 145°
2026-05-07 17:14 29.60936 27.53316 39088 ft 558 kts 145°
2026-05-07 17:14 29.54462 27.58220 39080 ft 557 kts 145°
2026-05-07 17:15 29.47995 27.63112 39082 ft 555 kts 145°
2026-05-07 17:15 29.41589 27.67949 39099 ft 555 kts 146°
2026-05-07 17:16 29.35076 27.72861 39219 ft 558 kts 146°
2026-05-07 17:16 29.28630 27.77714 39230 ft 558 kts 146°
2026-05-07 17:17 29.25390 27.80150 39337 ft 555 kts 146°
2026-05-07 17:17 29.22176 27.82565 39637 ft 550 kts 146°
2026-05-07 17:17 29.18992 27.84955 39988 ft 546 kts 146°
2026-05-07 17:17 29.15825 27.87331 40221 ft 544 kts 146°
2026-05-07 17:18 29.12660 27.89704 40424 ft 543 kts 146°
2026-05-07 17:18 29.09503 27.92069 40618 ft 543 kts 146°
2026-05-07 17:18 29.06346 27.94433 40801 ft 542 kts 147°
2026-05-07 17:18 29.03190 27.96794 41021 ft 542 kts 147°
2026-05-07 17:19 28.96900 28.01494 41075 ft 544 kts 147°
2026-05-07 17:19 28.90581 28.06209 41078 ft 541 kts 147°
2026-05-07 17:20 28.84282 28.10902 41072 ft 540 kts 147°
2026-05-07 17:20 28.78023 28.15633 41073 ft 540 kts 146°
2026-05-07 17:21 28.71783 28.20389 41073 ft 540 kts 146°
2026-05-07 17:21 28.65536 28.25137 41069 ft 540 kts 146°
2026-05-07 17:22 28.59325 28.29840 41082 ft 539 kts 147°
2026-05-07 17:22 28.53077 28.34560 41065 ft 538 kts 147°
2026-05-07 17:23 28.46848 28.39258 41067 ft 537 kts 147°
2026-05-07 17:23 28.40623 28.43946 41066 ft 537 kts 147°
2026-05-07 17:24 28.34376 28.48646 41065 ft 540 kts 147°
2026-05-07 17:24 28.28110 28.53352 41070 ft 539 kts 147°
2026-05-07 17:25 28.21858 28.58042 41068 ft 539 kts 147°
2026-05-07 17:25 28.15641 28.62698 41070 ft 539 kts 147°
2026-05-07 17:26 28.09390 28.67374 41060 ft 539 kts 147°
2026-05-07 17:26 28.03131 28.72048 41079 ft 538 kts 147°
2026-05-07 17:27 27.96883 28.76708 41067 ft 537 kts 147°
2026-05-07 17:27 27.90648 28.81352 41069 ft 536 kts 147°
2026-05-07 17:28 27.84408 28.85993 41070 ft 536 kts 147°
2026-05-07 17:28 27.78213 28.90593 41076 ft 536 kts 147°
2026-05-07 17:29 27.71971 28.95223 41074 ft 536 kts 147°
2026-05-07 17:29 27.65740 28.99838 41071 ft 535 kts 148°
2026-05-07 17:30 27.59509 29.04446 41079 ft 535 kts 148°
2026-05-07 17:30 27.53285 29.09043 41077 ft 535 kts 148°
2026-05-07 17:31 27.48107 29.12863 41075 ft 535 kts 148°
2026-05-07 17:31 27.41885 29.17446 41079 ft 535 kts 148°
2026-05-07 17:32 27.35659 29.22027 41075 ft 535 kts 148°
2026-05-07 17:32 27.29431 29.26603 41081 ft 534 kts 148°
2026-05-07 17:33 27.23207 29.31170 41069 ft 534 kts 148°
2026-05-07 17:33 27.17022 29.35702 41075 ft 534 kts 148°
2026-05-07 17:34 27.10801 29.40254 41075 ft 534 kts 148°
2026-05-07 17:34 27.04569 29.44808 41060 ft 534 kts 148°
2026-05-07 17:35 26.98339 29.49355 41081 ft 533 kts 148°
2026-05-07 17:35 26.92119 29.53888 41083 ft 533 kts 148°
2026-05-07 17:36 26.85896 29.58417 41075 ft 533 kts 148°
2026-05-07 17:36 26.79682 29.62934 41069 ft 532 kts 148°
2026-05-07 17:37 26.73508 29.67415 41056 ft 532 kts 148°
2026-05-07 17:37 26.67299 29.71916 41065 ft 531 kts 148°
2026-05-07 17:38 26.61084 29.76416 41067 ft 531 kts 148°
2026-05-07 17:38 26.54879 29.80927 41062 ft 531 kts 148°
2026-05-07 17:39 26.48735 29.85431 41058 ft 531 kts 148°
2026-05-07 17:39 26.42555 29.89956 41042 ft 531 kts 148°
2026-05-07 17:40 26.36384 29.94462 41056 ft 530 kts 148°
2026-05-07 17:40 26.30206 29.98963 41056 ft 530 kts 149°
2026-05-07 17:41 26.24033 30.03454 41056 ft 530 kts 149°
2026-05-07 17:41 26.17830 30.07881 41054 ft 529 kts 149°
2026-05-07 17:42 26.11636 30.12231 41056 ft 529 kts 150°
2026-05-07 17:42 26.05415 30.16604 41050 ft 528 kts 150°
2026-05-07 17:43 25.99211 30.20973 41042 ft 528 kts 150°
2026-05-07 17:43 25.93018 30.25333 41041 ft 528 kts 150°
2026-05-07 17:44 25.86808 30.29701 41034 ft 528 kts 150°
2026-05-07 17:44 25.80497 30.33822 41035 ft 524 kts 159°
2026-05-07 17:45 25.73693 30.36588 41024 ft 519 kts 166°
2026-05-07 17:45 25.66819 30.39014 41013 ft 518 kts 167°
2026-05-07 17:46 25.59981 30.41369 40992 ft 518 kts 167°
2026-05-07 17:46 25.53107 30.43754 40976 ft 518 kts 166°
2026-05-07 17:47 25.46246 30.46154 40971 ft 517 kts 167°
2026-05-07 17:47 25.39405 30.48560 40963 ft 515 kts 167°
2026-05-07 17:48 25.32580 30.50938 40969 ft 514 kts 167°
2026-05-07 17:48 25.25743 30.53313 40978 ft 514 kts 167°
2026-05-07 17:49 25.18919 30.55679 40979 ft 514 kts 167°
2026-05-07 17:49 25.12146 30.58027 40977 ft 513 kts 167°
2026-05-07 17:50 25.05336 30.60384 40975 ft 513 kts 167°
2026-05-07 17:50 24.98526 30.62740 40970 ft 513 kts 167°
2026-05-07 17:51 24.91721 30.65091 40940 ft 513 kts 167°
2026-05-07 17:51 24.84925 30.67437 40965 ft 511 kts 167°
2026-05-07 17:52 24.78145 30.69775 40965 ft 510 kts 167°
2026-05-07 17:52 24.71374 30.72106 40964 ft 510 kts 167°
2026-05-07 17:53 24.64601 30.74435 40969 ft 510 kts 167°
2026-05-07 17:53 24.57873 30.76747 40964 ft 509 kts 167°
2026-05-07 17:54 24.51115 30.79066 40964 ft 508 kts 167°
2026-05-07 17:54 24.44368 30.81378 40964 ft 508 kts 167°
2026-05-07 17:55 24.37624 30.83687 40961 ft 508 kts 167°
2026-05-07 17:55 24.30873 30.85995 40961 ft 508 kts 167°
2026-05-07 17:56 24.24127 30.88300 40960 ft 508 kts 167°
2026-05-07 17:56 24.17370 30.90606 40960 ft 508 kts 167°
2026-05-07 17:57 24.11762 30.92518 40958 ft 508 kts 167°
2026-05-07 17:57 24.03869 30.95206 40957 ft 508 kts 167°
2026-05-07 17:58 23.97132 30.97498 40954 ft 506 kts 168°
2026-05-07 17:58 23.90457 30.99767 40952 ft 505 kts 168°
2026-05-07 17:59 23.83750 31.02042 40955 ft 504 kts 168°
2026-05-07 17:59 23.77041 31.04316 40952 ft 504 kts 168°
2026-05-07 18:00 23.70338 31.06585 40958 ft 504 kts 168°
2026-05-07 18:00 23.63642 31.08850 40955 ft 503 kts 168°
2026-05-07 18:01 23.56948 31.11113 40950 ft 503 kts 168°
2026-05-07 18:01 23.50303 31.13355 40946 ft 503 kts 168°
2026-05-07 18:02 23.40268 31.16738 40939 ft 503 kts 168°
2026-05-07 18:03 23.33591 31.18987 40947 ft 502 kts 168°
2026-05-07 18:03 23.26925 31.21229 40944 ft 501 kts 168°
2026-05-07 18:04 23.20258 31.23468 40937 ft 502 kts 168°
2026-05-07 18:04 23.13591 31.25706 40913 ft 500 kts 168°
2026-05-07 18:05 23.06950 31.27933 40941 ft 498 kts 168°
2026-05-07 18:05 23.00323 31.30153 40936 ft 498 kts 168°
2026-05-07 18:06 22.93732 31.32358 40935 ft 498 kts 168°
2026-05-07 18:06 22.87108 31.34573 40935 ft 498 kts 168°
2026-05-07 18:07 22.80484 31.36784 40935 ft 498 kts 168°
2026-05-07 18:07 22.73850 31.38998 40935 ft 498 kts 168°
2026-05-07 18:08 22.67214 31.41211 40928 ft 498 kts 168°
2026-05-07 18:08 22.60583 31.43420 40933 ft 498 kts 168°
2026-05-07 18:09 22.53998 31.45611 40907 ft 498 kts 168°
2026-05-07 18:09 22.47361 31.47816 40936 ft 499 kts 168°
2026-05-07 18:10 22.40709 31.50025 40938 ft 500 kts 168°
2026-05-07 18:10 22.34066 31.52232 40940 ft 500 kts 168°
2026-05-07 18:11 22.27424 31.54435 40937 ft 499 kts 168°
2026-05-07 18:11 22.20783 31.56631 40934 ft 498 kts 168°
2026-05-07 18:12 22.14162 31.58820 40932 ft 497 kts 168°
2026-05-07 18:12 22.07544 31.61006 40932 ft 497 kts 168°
2026-05-07 18:13 22.00923 31.63167 40929 ft 496 kts 171°
2026-05-07 18:13 21.94214 31.64832 40891 ft 493 kts 173°
2026-05-07 18:14 21.87589 31.66353 40928 ft 489 kts 173°
2026-05-07 18:14 21.80949 31.67855 40929 ft 487 kts 173°
2026-05-07 18:15 21.74320 31.69357 40931 ft 487 kts 173°
2026-05-07 18:15 21.67695 31.70862 40928 ft 487 kts 173°
2026-05-07 18:16 21.61074 31.72367 40924 ft 485 kts 173°
2026-05-07 18:16 21.54476 31.73867 40930 ft 484 kts 173°
2026-05-07 18:17 21.47892 31.75361 40927 ft 484 kts 173°
2026-05-07 18:17 21.41305 31.76854 40928 ft 484 kts 173°
2026-05-07 18:18 21.34722 31.78345 40928 ft 484 kts 173°
2026-05-07 18:18 21.28129 31.79837 40928 ft 484 kts 173°
2026-05-07 18:19 21.21554 31.81324 40931 ft 482 kts 173°
2026-05-07 18:19 21.15031 31.82798 40930 ft 481 kts 173°
2026-05-07 18:20 21.08435 31.84286 40931 ft 481 kts 173°
2026-05-07 18:20 21.01920 31.85755 40926 ft 481 kts 173°
2026-05-07 18:21 20.95374 31.87230 40928 ft 481 kts 173°
2026-05-07 18:21 20.88812 31.88707 40923 ft 481 kts 173°
2026-05-07 18:22 20.82266 31.90179 40918 ft 481 kts 173°
2026-05-07 18:22 20.75711 31.91652 40904 ft 481 kts 173°
2026-05-07 18:23 20.69163 31.93122 40927 ft 481 kts 173°
2026-05-07 18:23 20.62617 31.94590 40928 ft 481 kts 173°
2026-05-07 18:24 20.57169 31.95811 40906 ft 481 kts 173°
2026-05-07 18:24 20.50620 31.97278 40902 ft 481 kts 173°
2026-05-07 18:25 20.44074 31.98742 40905 ft 481 kts 173°
2026-05-07 18:25 20.37525 32.00207 40906 ft 480 kts 173°
2026-05-07 18:26 20.30987 32.01667 40901 ft 480 kts 173°
2026-05-07 18:26 20.24490 32.03117 40903 ft 480 kts 173°
2026-05-07 18:27 20.17953 32.04574 40899 ft 480 kts 173°
2026-05-07 18:27 20.11423 32.06029 40900 ft 479 kts 174°
2026-05-07 18:28 20.04912 32.07479 40888 ft 478 kts 174°
2026-05-07 18:28 19.98415 32.08924 40889 ft 476 kts 174°
2026-05-07 18:29 19.91936 32.10364 40894 ft 475 kts 174°
2026-05-07 18:29 19.85464 32.11800 40873 ft 475 kts 174°
2026-05-07 18:30 19.79010 32.13233 40885 ft 473 kts 174°
2026-05-07 18:30 19.72564 32.14661 40884 ft 473 kts 174°
2026-05-07 18:31 19.66170 32.16077 40885 ft 473 kts 174°
2026-05-07 18:31 19.59731 32.17501 40878 ft 473 kts 174°
2026-05-07 18:32 19.53290 32.18926 40870 ft 472 kts 174°
2026-05-07 18:32 19.46866 32.20346 40867 ft 470 kts 174°
2026-05-07 18:33 19.40458 32.21760 40873 ft 470 kts 174°
2026-05-07 18:33 19.34050 32.23173 40864 ft 470 kts 174°
2026-05-07 18:34 19.27688 32.24575 40867 ft 470 kts 174°
2026-05-07 18:34 19.21288 32.25985 40864 ft 469 kts 174°
2026-05-07 18:35 19.14897 32.27392 40858 ft 469 kts 174°
2026-05-07 18:35 19.08511 32.28795 40863 ft 469 kts 174°
2026-05-07 18:36 19.02116 32.30200 40857 ft 469 kts 174°
2026-05-07 18:36 18.95730 32.31602 40845 ft 469 kts 174°
2026-05-07 18:37 18.89354 32.33001 40859 ft 468 kts 174°
2026-05-07 18:37 18.83020 32.34389 40861 ft 468 kts 174°
2026-05-07 18:38 18.76649 32.35784 40858 ft 467 kts 174°
2026-05-07 18:38 18.70285 32.37177 40860 ft 467 kts 174°
2026-05-07 18:39 18.63926 32.38568 40849 ft 467 kts 174°
2026-05-07 18:39 18.57556 32.39959 40868 ft 467 kts 174°
2026-05-07 18:40 18.51192 32.41348 40851 ft 467 kts 174°
2026-05-07 18:40 18.44823 32.42738 40854 ft 467 kts 174°
2026-05-07 18:41 18.38454 32.44127 40864 ft 467 kts 174°
2026-05-07 18:41 18.32123 32.45506 40866 ft 467 kts 174°
2026-05-07 18:42 18.25755 32.46892 40849 ft 467 kts 174°
2026-05-07 18:42 18.19388 32.48278 40857 ft 467 kts 174°
2026-05-07 18:43 18.13020 32.49661 40864 ft 467 kts 174°
2026-05-07 18:43 18.06653 32.51044 40855 ft 467 kts 174°
2026-05-07 18:44 18.00284 32.52426 40858 ft 468 kts 174°
2026-05-07 18:44 17.93904 32.53810 40854 ft 468 kts 174°
2026-05-07 18:45 17.87529 32.55192 40850 ft 468 kts 174°
2026-05-07 18:45 17.81155 32.56573 40847 ft 468 kts 174°
2026-05-07 18:46 17.74784 32.57951 40834 ft 467 kts 174°
2026-05-07 18:46 17.68405 32.59331 40848 ft 468 kts 174°
2026-05-07 18:47 17.62060 32.60701 40847 ft 468 kts 174°
2026-05-07 18:47 17.55679 32.62080 40838 ft 468 kts 174°
2026-05-07 18:48 17.49314 32.63453 40845 ft 467 kts 174°
2026-05-07 18:48 17.42952 32.64825 40836 ft 467 kts 174°
2026-05-07 18:49 17.36584 32.66197 40848 ft 467 kts 174°
2026-05-07 18:49 17.30209 32.67569 40843 ft 467 kts 174°
2026-05-07 18:50 17.23843 32.68940 40841 ft 467 kts 174°
2026-05-07 18:50 17.17502 32.70301 40843 ft 467 kts 174°
2026-05-07 18:51 17.11122 32.71663 40844 ft 468 kts 174°
2026-05-07 18:51 17.04738 32.73026 40833 ft 468 kts 174°
2026-05-07 18:52 16.98397 32.74380 40834 ft 468 kts 174°
2026-05-07 18:52 16.92010 32.75743 40834 ft 468 kts 174°
2026-05-07 18:53 16.85622 32.77106 40844 ft 468 kts 174°
2026-05-07 18:53 16.79238 32.78467 40835 ft 468 kts 174°
2026-05-07 18:54 16.72853 32.79827 40838 ft 468 kts 174°
2026-05-07 18:54 16.66472 32.81185 40836 ft 468 kts 174°
2026-05-07 18:55 16.60083 32.82544 40834 ft 468 kts 174°
2026-05-07 18:55 16.53699 32.83901 40830 ft 468 kts 174°
2026-05-07 18:56 16.47334 32.85082 40825 ft 466 kts 176°
2026-05-07 18:56 16.40921 32.86018 40829 ft 465 kts 177°
2026-05-07 18:57 16.34513 32.86955 40828 ft 465 kts 177°
2026-05-07 18:57 16.28106 32.87936 40831 ft 465 kts 176°
2026-05-07 18:58 16.21699 32.88937 40819 ft 465 kts 176°
2026-05-07 18:58 16.15287 32.89942 40834 ft 465 kts 176°
2026-05-07 18:59 16.08887 32.90942 40831 ft 465 kts 176°
2026-05-07 18:59 16.02478 32.91942 40829 ft 465 kts 176°
2026-05-07 19:00 15.96113 32.92935 40832 ft 465 kts 176°
2026-05-07 19:00 15.89705 32.93933 40830 ft 466 kts 176°
2026-05-07 19:01 15.83285 32.94932 40825 ft 466 kts 176°
2026-05-07 19:01 15.76870 32.95930 40823 ft 466 kts 176°
2026-05-07 19:02 15.70448 32.96929 40818 ft 466 kts 176°
2026-05-07 19:02 15.64025 32.97927 40817 ft 466 kts 176°
2026-05-07 19:03 15.57645 32.98917 40814 ft 467 kts 176°
2026-05-07 19:03 15.51212 32.99916 40815 ft 468 kts 176°
2026-05-07 19:04 15.44775 33.00914 40815 ft 468 kts 176°
2026-05-07 19:04 15.38338 33.01912 40815 ft 468 kts 176°
2026-05-07 19:05 15.31900 33.02909 40815 ft 468 kts 176°
2026-05-07 19:05 15.25459 33.03907 40814 ft 468 kts 176°
2026-05-07 19:06 15.19060 33.04896 40809 ft 468 kts 176°
2026-05-07 19:06 15.09398 33.06390 40804 ft 468 kts 176°
2026-05-07 19:07 15.02957 33.07385 40807 ft 468 kts 176°
2026-05-07 19:07 14.96515 33.08379 40804 ft 468 kts 176°
2026-05-07 19:08 14.90070 33.09374 40804 ft 468 kts 176°
2026-05-07 19:08 14.83619 33.10368 40799 ft 469 kts 176°
2026-05-07 19:09 14.77209 33.11356 40801 ft 469 kts 176°
2026-05-07 19:09 14.70753 33.12351 40801 ft 469 kts 176°
2026-05-07 19:10 14.64302 33.13343 40802 ft 469 kts 175°
2026-05-07 19:10 14.57847 33.14336 40798 ft 469 kts 175°
2026-05-07 19:11 14.51426 33.15328 40796 ft 469 kts 175°
2026-05-07 19:11 14.44970 33.16320 40797 ft 468 kts 175°
2026-05-07 19:12 14.38529 33.17309 40790 ft 467 kts 175°
2026-05-07 19:12 14.32096 33.18296 40796 ft 467 kts 175°
2026-05-07 19:13 14.25665 33.19284 40789 ft 467 kts 175°
2026-05-07 19:13 14.19233 33.20271 40791 ft 467 kts 175°
2026-05-07 19:14 14.12802 33.21258 40791 ft 467 kts 175°
2026-05-07 19:14 14.06375 33.22243 40787 ft 467 kts 175°
2026-05-07 19:15 13.99943 33.23228 40793 ft 467 kts 175°
2026-05-07 19:15 13.93506 33.24214 40793 ft 467 kts 175°
2026-05-07 19:16 13.87113 33.25193 40796 ft 467 kts 175°
2026-05-07 19:16 13.80674 33.26177 40796 ft 467 kts 175°
2026-05-07 19:17 13.74242 33.27161 40798 ft 467 kts 175°
2026-05-07 19:17 13.67806 33.28144 40799 ft 467 kts 175°
2026-05-07 19:18 13.62460 33.28961 40804 ft 467 kts 175°
2026-05-07 19:18 13.56018 33.29944 40804 ft 467 kts 175°
2026-05-07 19:19 13.49586 33.30925 40807 ft 467 kts 175°
2026-05-07 19:19 13.43150 33.31906 40805 ft 468 kts 175°
2026-05-07 19:20 13.36712 33.32888 40810 ft 468 kts 175°
2026-05-07 19:20 13.30307 33.33863 40809 ft 468 kts 175°
2026-05-07 19:21 13.23856 33.34846 40810 ft 468 kts 175°
2026-05-07 19:21 13.17411 33.35826 40809 ft 468 kts 175°
2026-05-07 19:22 13.10965 33.36807 40814 ft 468 kts 175°
2026-05-07 19:22 13.04521 33.37786 40812 ft 468 kts 175°
2026-05-07 19:23 12.98071 33.38766 40814 ft 468 kts 175°
2026-05-07 19:23 12.91669 33.39738 40815 ft 468 kts 175°
2026-05-07 19:24 12.85219 33.40717 40809 ft 468 kts 175°
2026-05-07 19:24 12.78770 33.41695 40835 ft 468 kts 175°
2026-05-07 19:25 12.72308 33.42674 40822 ft 468 kts 175°
2026-05-07 19:25 12.65861 33.43651 40825 ft 468 kts 175°
2026-05-07 19:26 12.59413 33.44627 40824 ft 468 kts 175°
2026-05-07 19:26 12.53010 33.45596 40824 ft 468 kts 174°
2026-05-07 19:27 12.46557 33.46572 40825 ft 469 kts 174°
2026-05-07 19:27 12.40103 33.47548 40823 ft 469 kts 174°
2026-05-07 19:28 12.33643 33.48525 40824 ft 469 kts 174°
2026-05-07 19:28 12.27189 33.49500 40826 ft 469 kts 174°
2026-05-07 19:29 12.20732 33.50475 40833 ft 469 kts 174°
2026-05-07 19:29 12.14272 33.51449 40841 ft 469 kts 174°
2026-05-07 19:30 12.07820 33.52423 40829 ft 469 kts 174°
2026-05-07 19:30 12.01406 33.53390 40848 ft 469 kts 174°
2026-05-07 19:31 11.94953 33.54362 40836 ft 469 kts 174°
2026-05-07 19:31 11.88501 33.55333 40850 ft 469 kts 174°
2026-05-07 19:32 11.82035 33.56307 40842 ft 470 kts 174°
2026-05-07 19:32 11.75573 33.57279 40851 ft 470 kts 174°
2026-05-07 19:33 11.69108 33.58252 40851 ft 470 kts 174°
2026-05-07 19:33 11.62635 33.59225 40860 ft 470 kts 174°
2026-05-07 19:34 11.56165 33.60197 40853 ft 470 kts 174°
2026-05-07 19:34 11.49734 33.61163 40854 ft 470 kts 174°
2026-05-07 19:35 11.43255 33.62135 40859 ft 471 kts 174°
2026-05-07 19:35 11.36776 33.63108 40865 ft 471 kts 174°
2026-05-07 19:36 11.30291 33.64080 40859 ft 471 kts 174°
2026-05-07 19:36 11.23808 33.65052 40864 ft 471 kts 174°
2026-05-07 19:37 11.17312 33.66026 40861 ft 471 kts 174°
2026-05-07 19:37 11.10823 33.66998 40871 ft 471 kts 174°
2026-05-07 19:38 11.04332 33.67970 40869 ft 471 kts 174°
2026-05-07 19:38 10.97883 33.68934 40874 ft 471 kts 173°
2026-05-07 19:39 10.91380 33.69907 40873 ft 473 kts 173°
2026-05-07 19:39 10.84868 33.70881 40872 ft 473 kts 173°
2026-05-07 19:40 10.78355 33.71853 40879 ft 473 kts 173°
2026-05-07 19:40 10.71838 33.72825 40875 ft 473 kts 173°
2026-05-07 19:41 10.65317 33.73797 40868 ft 473 kts 174°
2026-05-07 19:41 10.58831 33.74763 40869 ft 475 kts 174°
2026-05-07 19:42 10.52286 33.75739 40871 ft 475 kts 174°
2026-05-07 19:42 10.45736 33.76715 40876 ft 475 kts 174°
2026-05-07 19:43 10.39196 33.77689 40877 ft 475 kts 174°
2026-05-07 19:43 10.32691 33.78658 40870 ft 475 kts 174°
2026-05-07 19:44 10.26157 33.79631 40881 ft 474 kts 174°
2026-05-07 19:44 10.19620 33.80603 40878 ft 474 kts 174°
2026-05-07 19:45 10.13092 33.81574 40880 ft 474 kts 174°
2026-05-07 19:45 10.06563 33.82545 40875 ft 474 kts 174°
2026-05-07 19:46 10.00036 33.83515 40874 ft 475 kts 174°
2026-05-07 19:46 9.93490 33.84487 40875 ft 475 kts 173°
2026-05-07 19:47 9.86985 33.85453 40879 ft 475 kts 173°
2026-05-07 19:47 9.80439 33.86425 40877 ft 475 kts 173°
2026-05-07 19:48 9.73888 33.87397 40886 ft 475 kts 174°
2026-05-07 19:48 9.67334 33.88369 40884 ft 476 kts 173°
2026-05-07 19:49 9.60815 33.89335 40888 ft 476 kts 173°
2026-05-07 19:49 9.54252 33.90308 40903 ft 476 kts 173°
2026-05-07 19:50 9.47695 33.91279 40898 ft 476 kts 173°
2026-05-07 19:50 9.41133 33.92251 40896 ft 476 kts 173°
2026-05-07 19:51 9.34570 33.93269 40897 ft 478 kts 170°
2026-05-07 19:51 9.28104 33.94902 40899 ft 479 kts 167°
2026-05-07 19:52 9.21708 33.96666 40900 ft 480 kts 166°
2026-05-07 19:52 9.15266 33.98470 40894 ft 480 kts 166°
2026-05-07 19:53 9.08821 34.00267 40898 ft 480 kts 166°
2026-05-07 19:53 9.02375 34.02055 40899 ft 480 kts 166°
2026-05-07 19:54 8.95931 34.03840 40902 ft 480 kts 166°
2026-05-07 19:54 8.89488 34.05624 40896 ft 480 kts 166°
2026-05-07 19:55 8.83043 34.07407 40893 ft 480 kts 166°
2026-05-07 19:55 8.76596 34.09191 40892 ft 480 kts 166°
2026-05-07 19:56 8.70149 34.10975 40894 ft 480 kts 166°
2026-05-07 19:56 8.63704 34.12757 40895 ft 480 kts 166°
2026-05-07 19:57 8.57295 34.14529 40895 ft 480 kts 166°
2026-05-07 19:57 8.50847 34.16310 40893 ft 480 kts 166°
2026-05-07 19:58 8.44400 34.18091 40893 ft 480 kts 166°
2026-05-07 19:58 8.37947 34.19873 40892 ft 481 kts 166°
2026-05-07 19:59 8.31536 34.21643 40890 ft 481 kts 166°
2026-05-07 19:59 8.25077 34.23425 40893 ft 481 kts 166°
2026-05-07 20:00 8.18620 34.25206 40895 ft 481 kts 166°
2026-05-07 20:00 8.12161 34.26987 40892 ft 482 kts 166°
2026-05-07 20:01 8.05683 34.28774 40889 ft 483 kts 166°
2026-05-07 20:01 7.99195 34.30554 40889 ft 483 kts 166°
2026-05-07 20:02 7.92707 34.32322 40893 ft 483 kts 166°
2026-05-07 20:02 7.86222 34.34090 40893 ft 483 kts 166°
2026-05-07 20:03 7.79734 34.35861 40893 ft 483 kts 166°
2026-05-07 20:03 7.73245 34.37633 40892 ft 483 kts 166°
2026-05-07 20:04 7.66804 34.39391 40895 ft 483 kts 166°
2026-05-07 20:04 7.60315 34.41162 40899 ft 483 kts 166°
2026-05-07 20:05 7.53827 34.42932 40899 ft 483 kts 166°
2026-05-07 20:05 7.47333 34.44702 40900 ft 482 kts 166°
2026-05-07 20:06 7.40852 34.46469 40903 ft 482 kts 166°
2026-05-07 20:06 7.34372 34.48236 40903 ft 482 kts 166°
2026-05-07 20:07 7.27935 34.49990 40902 ft 483 kts 166°
2026-05-07 20:07 7.21445 34.51758 40904 ft 483 kts 166°
2026-05-07 20:08 7.14961 34.53523 40904 ft 483 kts 166°
2026-05-07 20:08 7.08476 34.55289 40911 ft 483 kts 166°
2026-05-07 20:09 7.01988 34.57054 40909 ft 483 kts 166°
2026-05-07 20:10 6.92310 34.59687 40909 ft 483 kts 166°
2026-05-07 20:10 6.85827 34.61450 40911 ft 483 kts 166°
2026-05-07 20:11 6.79334 34.63215 40923 ft 483 kts 166°
2026-05-07 20:11 6.72848 34.64978 40922 ft 483 kts 166°
2026-05-07 20:12 6.66355 34.66743 40923 ft 483 kts 166°
2026-05-07 20:12 6.59858 34.68475 40927 ft 483 kts 166°
2026-05-07 20:13 6.53355 34.70175 40930 ft 483 kts 166°
2026-05-07 20:13 6.46850 34.71879 40930 ft 483 kts 166°
2026-05-07 20:14 6.40378 34.73581 40937 ft 483 kts 166°
2026-05-07 20:14 6.33875 34.75294 40950 ft 483 kts 166°
2026-05-07 20:15 6.28423 34.76730 40947 ft 484 kts 166°
2026-05-07 20:15 6.21957 34.78432 40953 ft 483 kts 166°
2026-05-07 20:16 6.15456 34.80142 40954 ft 483 kts 166°
2026-05-07 20:16 6.08955 34.81853 40956 ft 483 kts 166°
2026-05-07 20:17 6.02446 34.83565 40954 ft 483 kts 166°
2026-05-07 20:17 5.95942 34.85275 40966 ft 483 kts 166°
2026-05-07 20:18 5.89437 34.86985 40964 ft 483 kts 166°
2026-05-07 20:18 5.82972 34.88685 40962 ft 483 kts 166°
2026-05-07 20:19 5.76466 34.90394 40959 ft 483 kts 166°
2026-05-07 20:19 5.69960 34.92103 40948 ft 483 kts 166°
2026-05-07 20:20 5.63455 34.93812 40952 ft 483 kts 166°
2026-05-07 20:20 5.56998 34.95507 40946 ft 483 kts 166°
2026-05-07 20:21 5.50498 34.97214 40949 ft 483 kts 166°
2026-05-07 20:21 5.44005 34.98918 40933 ft 482 kts 166°
2026-05-07 20:22 5.37512 35.00622 40932 ft 482 kts 166°
2026-05-07 20:22 5.31017 35.02325 40912 ft 482 kts 166°
2026-05-07 20:23 5.24543 35.04064 40913 ft 482 kts 165°
2026-05-07 20:23 5.18073 35.05842 40903 ft 482 kts 165°
2026-05-07 20:24 5.11642 35.07607 40903 ft 482 kts 165°
2026-05-07 20:24 5.05175 35.09373 40894 ft 482 kts 165°
2026-05-07 20:25 4.98700 35.11138 40896 ft 482 kts 165°
2026-05-07 20:25 4.92229 35.12901 40896 ft 482 kts 165°
2026-05-07 20:26 4.85753 35.14665 40894 ft 482 kts 165°
2026-05-07 20:26 4.79279 35.16429 40895 ft 482 kts 165°
2026-05-07 20:27 4.72808 35.18191 40897 ft 482 kts 165°
2026-05-07 20:27 4.66342 35.19951 40899 ft 482 kts 165°
2026-05-07 20:28 4.59860 35.21716 40895 ft 482 kts 165°
2026-05-07 20:28 4.53380 35.23480 40895 ft 482 kts 165°
2026-05-07 20:29 4.46939 35.25232 40893 ft 483 kts 165°
2026-05-07 20:29 4.40448 35.26998 40895 ft 483 kts 165°
2026-05-07 20:30 4.33954 35.28765 40893 ft 483 kts 165°
2026-05-07 20:30 4.27466 35.30530 40894 ft 483 kts 165°
2026-05-07 20:31 4.20968 35.32297 40895 ft 483 kts 165°
2026-05-07 20:31 4.14517 35.34051 40893 ft 483 kts 165°
2026-05-07 20:32 4.08020 35.35817 40900 ft 483 kts 165°
2026-05-07 20:32 4.01528 35.37581 40901 ft 483 kts 165°
2026-05-07 20:33 3.95038 35.39321 40901 ft 482 kts 166°
2026-05-07 20:33 3.88538 35.41006 40899 ft 482 kts 166°
2026-05-07 20:34 3.82080 35.42677 40899 ft 482 kts 166°
2026-05-07 20:34 3.75584 35.44366 40898 ft 482 kts 166°
2026-05-07 20:35 3.69090 35.46060 40892 ft 482 kts 166°
2026-05-07 20:35 3.62589 35.47757 40892 ft 482 kts 166°
2026-05-07 20:36 3.56092 35.49452 40893 ft 482 kts 166°
2026-05-07 20:36 3.49595 35.51147 40894 ft 483 kts 166°
2026-05-07 20:37 3.43095 35.52841 40893 ft 483 kts 166°
2026-05-07 20:37 3.36590 35.54537 40892 ft 483 kts 166°
2026-05-07 20:38 3.30091 35.56231 40893 ft 483 kts 166°
2026-05-07 20:38 3.23587 35.57926 40893 ft 483 kts 166°
2026-05-07 20:39 3.17124 35.59610 40891 ft 483 kts 166°
2026-05-07 20:39 3.10606 35.61221 40894 ft 482 kts 171°
2026-05-07 20:40 3.03983 35.62343 40895 ft 482 kts 171°
2026-05-07 20:40 2.97375 35.63413 40893 ft 481 kts 171°
2026-05-07 20:41 2.90762 35.64476 40893 ft 481 kts 171°
2026-05-07 20:41 2.84147 35.65538 40894 ft 481 kts 172°
2026-05-07 20:42 2.77575 35.66592 40899 ft 481 kts 172°
2026-05-07 20:42 2.70967 35.67652 40902 ft 481 kts 172°
2026-05-07 20:43 2.64351 35.68713 40900 ft 481 kts 172°
2026-05-07 20:43 2.57741 35.69772 40902 ft 481 kts 172°
2026-05-07 20:44 2.51121 35.70833 40904 ft 481 kts 171°
2026-05-07 20:44 2.44510 35.71893 40905 ft 481 kts 171°
2026-05-07 20:45 2.37894 35.72953 40909 ft 481 kts 172°
2026-05-07 20:45 2.31278 35.74013 40917 ft 481 kts 172°
2026-05-07 20:46 2.24701 35.75067 40916 ft 481 kts 172°
2026-05-07 20:46 2.18090 35.76126 40920 ft 481 kts 171°
2026-05-07 20:47 2.11463 35.77187 40916 ft 482 kts 172°
2026-05-07 20:47 2.04834 35.78249 40927 ft 482 kts 172°
2026-05-07 20:48 1.98197 35.79312 40937 ft 482 kts 172°
2026-05-07 20:48 1.91567 35.80374 40939 ft 482 kts 172°
2026-05-07 20:49 1.84940 35.81435 40950 ft 482 kts 172°
2026-05-07 20:49 1.78303 35.82497 40949 ft 483 kts 172°
2026-05-07 20:50 1.71716 35.83552 40961 ft 483 kts 172°
2026-05-07 20:50 1.65077 35.84615 40960 ft 483 kts 172°
2026-05-07 20:51 1.58446 35.85706 40957 ft 483 kts 171°
2026-05-07 20:51 1.51827 35.86887 40957 ft 483 kts 171°
2026-05-07 20:52 1.45204 35.88062 40969 ft 484 kts 171°
2026-05-07 20:52 1.38575 35.89232 40970 ft 484 kts 171°
2026-05-07 20:53 1.31936 35.90402 40979 ft 484 kts 171°
2026-05-07 20:53 1.25346 35.91562 40980 ft 484 kts 171°
2026-05-07 20:54 1.18714 35.92730 40987 ft 484 kts 171°
2026-05-07 20:54 1.12074 35.93899 40986 ft 484 kts 171°
2026-05-07 20:55 1.05443 35.95066 40998 ft 484 kts 171°
2026-05-07 20:55 0.98807 35.96234 41000 ft 484 kts 171°
2026-05-07 20:56 0.92172 35.97402 40999 ft 484 kts 171°
2026-05-07 20:56 0.85585 35.98562 41013 ft 484 kts 171°
2026-05-07 20:57 0.78956 35.99728 41010 ft 484 kts 171°
2026-05-07 20:57 0.72322 36.00896 41028 ft 484 kts 171°
2026-05-07 20:58 0.65686 36.02064 41031 ft 484 kts 171°
2026-05-07 20:58 0.59057 36.03230 41042 ft 484 kts 171°
2026-05-07 20:59 0.52425 36.04397 41042 ft 484 kts 171°
2026-05-07 20:59 0.45833 36.05557 41066 ft 484 kts 170°
2026-05-07 21:00 0.39204 36.06724 41068 ft 484 kts 171°
2026-05-07 21:00 0.32565 36.07892 41088 ft 484 kts 171°
2026-05-07 21:01 0.25926 36.09060 41086 ft 485 kts 170°
2026-05-07 21:01 0.19275 36.10231 41104 ft 486 kts 170°
2026-05-07 21:02 0.12614 36.11403 41103 ft 486 kts 170°
2026-05-07 21:02 0.05962 36.12573 41121 ft 483 kts 170°
2026-05-07 21:03 -0.00589 36.13726 41063 ft 475 kts 170°
2026-05-07 21:03 -0.03837 36.14298 40932 ft 474 kts 170°
2026-05-07 21:03 -0.07081 36.14868 40745 ft 474 kts 170°
2026-05-07 21:03 -0.10329 36.15440 40508 ft 474 kts 170°
2026-05-07 21:04 -0.13572 36.16010 40267 ft 472 kts 170°
2026-05-07 21:04 -0.16813 36.16581 40030 ft 473 kts 170°
2026-05-07 21:04 -0.20055 36.17151 39805 ft 472 kts 171°
2026-05-07 21:04 -0.23229 36.17710 39499 ft 467 kts 171°
2026-05-07 21:05 -0.26416 36.18271 39104 ft 465 kts 171°
2026-05-07 21:05 -0.29597 36.18830 38626 ft 463 kts 171°
2026-05-07 21:05 -0.32762 36.19387 38165 ft 460 kts 171°
2026-05-07 21:05 -0.35908 36.19941 37724 ft 457 kts 171°
2026-05-07 21:06 -0.39035 36.20491 37299 ft 454 kts 170°
2026-05-07 21:06 -0.42137 36.21037 36863 ft 452 kts 170°
2026-05-07 21:06 -0.45241 36.21583 36414 ft 452 kts 170°
2026-05-07 21:06 -0.48340 36.22128 35977 ft 454 kts 170°
2026-05-07 21:07 -0.51465 36.22678 35508 ft 456 kts 170°
2026-05-07 21:07 -0.54590 36.23228 35049 ft 457 kts 170°
2026-05-07 21:07 -0.56671 36.23594 34656 ft 459 kts 170°
2026-05-07 21:07 -0.59822 36.24148 33943 ft 461 kts 170°
2026-05-07 21:08 -0.62999 36.24707 33062 ft 465 kts 170°
2026-05-07 21:08 -0.66200 36.25270 32171 ft 469 kts 169°
2026-05-07 21:08 -0.69431 36.25839 31277 ft 473 kts 170°
2026-05-07 21:08 -0.72684 36.26411 30513 ft 475 kts 170°
2026-05-07 21:09 -0.75930 36.26982 29811 ft 472 kts 170°
2026-05-07 21:09 -0.79153 36.27550 29120 ft 468 kts 170°
2026-05-07 21:09 -0.82348 36.28112 28483 ft 464 kts 170°
2026-05-07 21:09 -0.85514 36.28669 27842 ft 460 kts 169°
2026-05-07 21:10 -0.88652 36.29222 27197 ft 456 kts 169°
2026-05-07 21:10 -0.91762 36.29769 26564 ft 452 kts 170°
2026-05-07 21:10 -0.94810 36.30305 25929 ft 449 kts 169°
2026-05-07 21:10 -0.97874 36.30845 25280 ft 445 kts 169°
2026-05-07 21:11 -1.00915 36.31380 24635 ft 442 kts 169°
2026-05-07 21:11 -1.03939 36.31913 23997 ft 440 kts 169°
2026-05-07 21:11 -1.09934 36.32968 22587 ft 433 kts 169°
2026-05-07 21:12 -1.12889 36.33488 21925 ft 429 kts 169°
2026-05-07 21:12 -1.15812 36.34002 21287 ft 425 kts 169°
2026-05-07 21:12 -1.18709 36.34512 20655 ft 421 kts 169°
2026-05-07 21:12 -1.21584 36.35019 20024 ft 417 kts 169°
2026-05-07 21:13 -1.24429 36.35520 19404 ft 414 kts 169°
2026-05-07 21:13 -1.27255 36.36018 18774 ft 411 kts 169°
2026-05-07 21:13 -1.30056 36.36553 18117 ft 408 kts 165°
2026-05-07 21:13 -1.32670 36.37608 17260 ft 407 kts 148°
2026-05-07 21:14 -1.34780 36.39466 16512 ft 404 kts 128°
2026-05-07 21:14 -1.36117 36.41897 15877 ft 399 kts 108°
2026-05-07 21:14 -1.36677 36.44590 15244 ft 394 kts 97°
2026-05-07 21:14 -1.37022 36.47252 14670 ft 389 kts 97°
2026-05-07 21:15 -1.37389 36.49918 14067 ft 385 kts 98°
2026-05-07 21:15 -1.37787 36.52548 13416 ft 381 kts 99°
2026-05-07 21:15 -1.38204 36.55146 12820 ft 376 kts 99°
2026-05-07 21:15 -1.38630 36.57706 12225 ft 371 kts 100°
2026-05-07 21:16 -1.39057 36.60189 11803 ft 349 kts 101°
2026-05-07 21:16 -1.39733 36.62391 11272 ft 318 kts 115°
2026-05-07 21:16 -1.40940 36.64142 10688 ft 297 kts 135°
2026-05-07 21:16 -1.42514 36.65350 10531 ft 278 kts 148°
2026-05-07 21:17 -1.44094 36.66410 10403 ft 270 kts 140°
2026-05-07 21:17 -1.45302 36.67827 10304 ft 270 kts 120°
2026-05-07 21:17 -1.45896 36.69597 10175 ft 271 kts 97°
2026-05-07 21:17 -1.45781 36.71448 10063 ft 272 kts 77°
2026-05-07 21:18 -1.45231 36.73263 9783 ft 273 kts 72°
2026-05-07 21:18 -1.44582 36.75044 9435 ft 273 kts 67°
2026-05-07 21:18 -1.43661 36.76687 9047 ft 267 kts 55°
2026-05-07 21:18 -1.42583 36.78133 8662 ft 254 kts 53°
2026-05-07 21:19 -1.41552 36.79512 8265 ft 241 kts 54°
2026-05-07 21:19 -1.40594 36.80835 7875 ft 228 kts 55°
2026-05-07 21:19 -1.39708 36.82092 7589 ft 215 kts 55°
2026-05-07 21:19 -1.38859 36.83266 7365 ft 200 kts 54°
2026-05-07 21:20 -1.38065 36.84350 7100 ft 186 kts 54°
2026-05-07 21:20 -1.37327 36.85364 6888 ft 174 kts 54°
2026-05-07 21:20 -1.36642 36.86307 6687 ft 161 kts 53°
2026-05-07 21:20 -1.36017 36.87166 6466 ft 149 kts 53°
2026-05-07 21:21 -1.35428 36.87975 6305 ft 139 kts 54°
2026-05-07 21:21 -1.34865 36.88749 6099 ft 137 kts 53°
2026-05-07 21:21 -1.34300 36.89524 5914 ft 138 kts 53°
2026-05-07 21:21 -1.33742 36.90299 5721 ft 137 kts 53°
2026-05-07 21:22 -1.33184 36.91071 5516 ft 136 kts 53°
2026-05-07 21:22 -1.32621 36.91831 5348 ft 136 kts 52°
2026-05-07 21:22 -1.32144 36.92477 5316 ft 90 kts 53°
2026-05-07 21:22 -1.31856 36.92873 5308 ft 58 kts 53°
2026-05-07 21:23 -1.31682 36.93112 5307 ft 28 kts 54°
2026-05-07 21:23 -1.31601 36.93222 5304 ft 16 kts 53°
2026-05-07 21:23 -1.31568 36.93299 5306 ft 11 kts 92°
2026-05-07 21:23 -1.31605 36.93356 5305 ft 10 kts 141°
2026-05-07 21:24 -1.31659 36.93396 5305 ft 9 kts 144°
2026-05-07 21:24 -1.31705 36.93430 5304 ft 7 kts 144°
2026-05-07 21:24 -1.31740 36.93455 5308 ft 5 kts 143°
2026-05-07 21:24 -1.31754 36.93465 5306 ft 1 kts 144°
2026-05-07 21:25 -1.31790 36.93479 5309 ft 9 kts 174°
2026-05-07 21:25 -1.31863 36.93424 5306 ft 18 kts 231°
2026-05-07 21:25 -1.31934 36.93326 5310 ft 17 kts 234°
2026-05-07 21:25 -1.32004 36.93227 5310 ft 18 kts 234°
2026-05-07 21:26 -1.32078 36.93125 5311 ft 18 kts 234°
2026-05-07 21:26 -1.32150 36.93027 5314 ft 16 kts 233°
2026-05-07 21:26 -1.32216 36.92938 5317 ft 15 kts 233°
2026-05-07 21:26 -1.32280 36.92852 5318 ft 16 kts 234°
2026-05-07 21:27 -1.32345 36.92761 5335 ft 16 kts 234°
2026-05-07 21:27 -1.32415 36.92665 5335 ft 18 kts 234°
2026-05-07 21:27 -1.32491 36.92561 5319 ft 18 kts 234°
2026-05-07 21:27 -1.32552 36.92476 5335 ft 13 kts 234°
2026-05-07 21:28 -1.32611 36.92398 5334 ft 15 kts 232°
2026-05-07 21:28 -1.32674 36.92314 5335 ft 14 kts 233°
2026-05-07 21:28 -1.32727 36.92241 5336 ft 11 kts 234°
2026-05-07 21:28 -1.32769 36.92200 5335 ft 7 kts 190°
2026-05-07 21:29 -1.32823 36.92226 5333 ft 10 kts 145°
2026-05-07 21:29 -1.32888 36.92257 5334 ft 10 kts 177°
2026-05-07 21:29 -1.32960 36.92233 5332 ft 12 kts 199°
2026-05-07 21:29 -1.33037 36.92219 5331 ft 12 kts 184°
2026-05-07 21:30 -1.33120 36.92226 5329 ft 10 kts 168°
2026-05-07 21:30 -1.33169 36.92243 5332 ft 6 kts 155°
2026-05-07 21:30 -1.33197 36.92238 5334 ft 4 kts 210°
2026-05-07 21:30 -1.33217 36.92213 5333 ft 3 kts 234°
2026-05-07 21:31 -1.33227 36.92198 5334 ft 2 kts 237°
2026-05-07 21:31 -1.33231 36.92191 5334 ft 0 kts 237°